This is the latest recevied weather packets stored in our database for station/object JS2WAD-13. If no packets are shown the sender has not sent any weather packets the latest 10 day(s).
| Time | Temp. | Humidity | Pressure | Rain* | Wind** | Luminosity | Snow |
|---|---|---|---|---|---|---|---|
| 1778133377 | 28.33° C | 45% | 900.9 hPa | 0 mm | - | 239 W/m² | - |
| 1778133077 | 28.33° C | 46% | 900.9 hPa | 0 mm | - | 759 W/m² | - |
| 1778132777 | 28.33° C | 45% | 900.8 hPa | 0 mm | - | 775 W/m² | - |
| 1778132477 | 28.33° C | 46% | 900.8 hPa | 0 mm | - | 789 W/m² | - |
| 1778132177 | 28.33° C | 46% | 900.9 hPa | 0 mm | - | 780 W/m² | - |
| 1778131877 | 28.33° C | 46% | 901.2 hPa | 0 mm | - | 533 W/m² | - |
| 1778131577 | 28.33° C | 46% | 901.1 hPa | 0 mm | - | 128 W/m² | - |
| 1778131277 | 28.33° C | 46% | 901.1 hPa | 0 mm | - | 100 W/m² | - |
| 1778130977 | 28.33° C | 46% | 901.2 hPa | 0 mm | - | 102 W/m² | - |
| 1778130677 | 28.33° C | 46% | 901.6 hPa | 0 mm | - | 118 W/m² | - |
| 1778130377 | 28.33° C | 47% | 901.5 hPa | 0 mm | - | 566 W/m² | - |
| 1778130077 | 28.33° C | 46% | 901.6 hPa | 0 mm | - | 874 W/m² | - |
| 1778129777 | 28.33° C | 46% | 901.7 hPa | 0 mm | - | 896 W/m² | - |
| 1778129477 | 28.33° C | 46% | 901.8 hPa | 0 mm | - | 902 W/m² | - |
| 1778129177 | 28.33° C | 46% | 902 hPa | 0 mm | - | 909 W/m² | - |
| 1778128877 | 28.33° C | 47% | 902.1 hPa | 0 mm | - | 937 W/m² | - |
| 1778128577 | 28.33° C | 47% | 902.1 hPa | 0 mm | - | 919 W/m² | - |
| 1778128277 | 27.78° C | 49% | 902.1 hPa | 0 mm | - | 928 W/m² | - |
| 1778127977 | 27.78° C | 48% | 901.9 hPa | 0 mm | - | 916 W/m² | - |
| 1778127677 | 27.22° C | 49% | 902.1 hPa | 0 mm | - | 907 W/m² | - |
| 1778127377 | 27.22° C | 48% | 902.2 hPa | 0 mm | - | 397 W/m² | - |
| 1778127077 | 27.78° C | 48% | 902.2 hPa | 0 mm | - | 95 W/m² | - |
| 1778126778 | 27.22° C | 49% | 902.1 hPa | 0 mm | - | 79 W/m² | - |
| 1778126477 | 27.22° C | 49% | 902 hPa | 0 mm | - | 805 W/m² | - |
| 1778126177 | 27.22° C | 49% | 902.2 hPa | 0 mm | - | 942 W/m² | - |
* Rain latest hour (hover to see other rain measurements)
** Current wind speed in m/s (hover to see current wind gust speed)